{"data":{"norad_id":52283,"intl_designator":"2022-041Y","name":"STARLINK-3789","alt_names":[],"object_type":"PAYLOAD","status":"ACTIVE","operator":null,"country":"US","launch_date":"2022-04-21","launch_site_code":"AFETR","launch_vehicle":null,"mission":null,"orbit_class":"UNKNOWN","rcs_meters":null,"size_class":null,"mass_kg":null,"dimensions":null,"purposes":["comms"],"wikipedia_slug":null,"has_3d_model":false,"image_url":null,"decayed_at":null,"tle_current":{"epoch":"2026-09-20T03:42:15.725952Z","epoch_age_seconds":89377,"freshness":"FRESH","line1":"1 52283U 22041Y   26263.15434868  .00000766  00000+0  34617-4 0  9990","line2":"2 52283  53.1608 309.2713 0001210  77.2859 282.8278 15.33551753243815","mean_motion":15.33551753,"eccentricity":0.000121,"inclination_deg":53.1608,"raan_deg":309.2713,"arg_perigee_deg":77.2859,"mean_anomaly_deg":282.8278,"bstar":3.4617e-5,"rev_number":24381,"period_min":93.89966769514,"perigee_km":464.39752421144,"apogee_km":466.05361795364,"semimajor_km":6843.3625710825,"source":"CELESTRAK","updated_at":"2026-09-20T09:00:40.015059Z"}}}